Sheridan, WY

6:10 PM MDT on August 18, 2017 (GMT -0600)
Sheridan County

Weather History for KSHR - April, 2013

Change the Weather History Date:

Wednesday, April 3, 2013

  Actual Average Record
Temperature  
Mean Temperature 47 °F 40 °F  
Max Temperature 65 °F 54 °F 76 °F (1943)
Min Temperature 29 °F 27 °F -7 °F (1936)
Degree Days  
Heating Degree Days 18 25  
Month to date heating degree days 63 75  
Since 1 July heating degree days 6342 6534  
Cooling Degree Days 0 0  
Month to date cooling degree days 0 0  
Year to date cooling degree days 0 0  
Moisture  
Dew Point 26 °F    
Average Humidity 51    
Maximum Humidity 78    
Minimum Humidity 23    
Precipitation  
Precipitation 0.00 in 0.03 in 2.62 in (1955)
Month to date precipitation 0.00 0.11  
Year to date precipitation 2.02 2.19  
Sea Level Pressure  
Sea Level Pressure 30.02 in    
Wind  
Wind Speed 8 mph (NNW)    
Max Wind Speed 28 mph    
Max Gust Speed 38 mph    
Visibility 10 miles    
Events      
T = Trace of Precipitation, MM = Missing Value Source: NWS Daily Summary

Daily Weather History Graph

Daily Weather History Graph

Search for Another Location

Airport or City:

Trip Planner

Search our weather history database for the weather conditions in past years. The results will help you decide how hot, cold, wet, or windy it might be!

Date:

Astronomy

Apr. 03, 2013 Rise Set
Actual Time 6:44 AM MDT 7:38 PM MDT
Civil Twilight 6:14 AM MDT 8:08 PM MDT
Nautical Twilight 5:39 AM MDT 8:43 PM MDT
Astronomical Twilight 5:02 AM MDT 9:20 PM MDT
Moon 2:43 AM MDT (4/3) 12:38 PM MDT (4/3)
Length of Visible Light 13h 53m
Length of Day
12h 53m
Last Quarter, 44% of the Moon is Illuminated
Apr 3
Last Quarter
Apr 10
New
Apr 18
First Quarter
Apr 25
Full
May 2
Last Quarter

Hourly Weather History & Observations

Time (MDT) Temp. Windchill Dew Point Humidity Pressure Visibility Wind Dir Wind Speed Gust Speed Precip Events Conditions
12:53 AM 32.0 °F 28.7 °F 23.0 °F 69% 29.94 in 10.0 mi SSW 3.5 mph - N/A   Clear
1:53 AM 35.1 °F - 21.9 °F 59% 29.93 in 10.0 mi Calm Calm - N/A   Clear
2:53 AM 32.0 °F 28.7 °F 21.0 °F 64% 29.93 in 10.0 mi South 3.5 mph - N/A   Clear
3:53 AM 36.0 °F - 21.0 °F 55% 29.91 in 10.0 mi Calm Calm - N/A   Clear
4:53 AM 37.0 °F - 21.0 °F 52% 29.91 in 10.0 mi Calm Calm - N/A   Clear
5:53 AM 32.0 °F - 21.9 °F 66% 29.95 in 10.0 mi Calm Calm - N/A   Scattered Clouds
6:53 AM 30.9 °F - 23.0 °F 72% 29.99 in 10.0 mi Calm Calm - N/A   Overcast
7:53 AM 37.9 °F 32.7 °F 27.0 °F 65% 30.04 in 10.0 mi SSW 6.9 mph - N/A   Scattered Clouds
8:53 AM 54.0 °F - 27.0 °F 35% 30.01 in 10.0 mi NW 3.5 mph - N/A   Clear
9:53 AM 57.9 °F - 27.0 °F 31% 30.02 in 10.0 mi NNW 18.4 mph 23.0 mph N/A   Partly Cloudy
10:53 AM 60.1 °F - 28.9 °F 31% 30.02 in 10.0 mi NNW 10.4 mph 19.6 mph N/A   Clear
11:53 AM 62.1 °F - 28.0 °F 28% 30.03 in 10.0 mi North 21.9 mph 31.1 mph N/A   Clear
12:53 PM 64.0 °F - 28.0 °F 26% 30.03 in 10.0 mi NNW 24.2 mph 32.2 mph N/A   Clear
1:53 PM 62.1 °F - 27.0 °F 26% 30.02 in 10.0 mi North 19.6 mph 26.5 mph N/A   Partly Cloudy
2:53 PM 63.0 °F - 26.1 °F 25% 30.02 in 10.0 mi NNW 20.7 mph 28.8 mph N/A   Scattered Clouds
3:53 PM 62.1 °F - 25.0 °F 24% 30.01 in 10.0 mi NNW 19.6 mph 24.2 mph N/A   Partly Cloudy
4:53 PM 62.1 °F - 25.0 °F 24% 30.01 in 10.0 mi NNW 19.6 mph - N/A   Clear
5:53 PM 59.0 °F - 26.1 °F 28% 30.04 in 10.0 mi North 9.2 mph 21.9 mph N/A   Clear
6:53 PM 59.0 °F - 28.0 °F 31% 30.06 in 10.0 mi NNE 10.4 mph - N/A   Clear
7:53 PM 52.0 °F - 30.0 °F 43% 30.10 in 10.0 mi ENE 9.2 mph - N/A   Clear
8:53 PM 42.1 °F - 28.9 °F 60% 30.13 in 10.0 mi Calm Calm - N/A   Partly Cloudy
9:53 PM 39.0 °F 35.7 °F 28.0 °F 65% 30.14 in 10.0 mi NNE 4.6 mph - N/A   Clear
10:53 PM 37.0 °F - 28.0 °F 70% 30.12 in 10.0 mi Calm Calm - N/A   Clear
11:53 PM 32.0 °F - 26.1 °F 79% 30.13 in 10.0 mi Calm Calm - N/A   Clear